• In Netherlands
  • List of Countries
  • For 7 days
  • Water Temperature
  • Satellite Maps
  • Weather Map
  • Weather Widgets
  • user-avatar
    Login

    Hourly Weather Mingachevir

    Today, 29 March, Wednesday

    Time Temperature Precipitation Wind Pressure Humidity
    00:00 +7°C° 0 mm 3 mps 754 mmHg 59%
    01:00 +6°C° 0 mm 4 mps 754 mmHg 58%
    02:00 +6°C° 0 mm 4 mps 753 mmHg 57%
    03:00 +5°C° 0 mm 6 mps 753 mmHg 56%
    04:00 +5°C° 0 mm 6 mps 753 mmHg 55%
    05:00 +5°C° 0 mm 6 mps 753 mmHg 55%
    06:00 +5°C° 0 mm 6 mps 753 mmHg 54%
    07:00 +8°C° 0 mm 6 mps 753 mmHg 48%
    08:00 +10°C° 0 mm 6 mps 753 mmHg 42%
    09:00 +13°C° 0 mm 6 mps 753 mmHg 35%
    10:00 +15°C° 0 mm 6 mps 753 mmHg 33%
    11:00 +16°C° 0 mm 6 mps 753 mmHg 30%
    12:00 +17°C° 0 mm 6 mps 753 mmHg 28%
    13:00 +19°C° 0 mm 6 mps 753 mmHg 28%
    14:00 +19°C° 0 mm 6 mps 753 mmHg 27%
    15:00 +20°C° 0 mm 6 mps 752 mmHg 27%
    16:00 +17°C° 0 mm 5 mps 753 mmHg 31%
    17:00 +15°C° 0 mm 4 mps 754 mmHg 35%
    18:00 +15°C° 0 mm 2 mps 754 mmHg 39%
    19:00 +14°C° 0 mm 2 mps 755 mmHg 43%
    20:00 +12°C° 0 mm 2 mps 756 mmHg 47%
    21:00 +10°C° 0 mm 2 mps 757 mmHg 51%
    22:00 +9°C° 0 mm 2 mps 757 mmHg 58%
    23:00 +8°C° 0 mm 2 mps 758 mmHg 64%

    Tomorrow, 30 March, Thursday

    Time Temperature Precipitation Wind Pressure Humidity
    00:00 +8°C° 0 mm 3 mps 758 mmHg 71%
    01:00 +7°C° 0 mm 2 mps 759 mmHg 75%
    02:00 +6°C° 0 mm 2 mps 759 mmHg 79%
    03:00 +7°C° 0 mm 1 mps 759 mmHg 83%
    04:00 +7°C° 0 mm 1 mps 759 mmHg 83%
    05:00 +6°C° 0 mm 1 mps 759 mmHg 84%
    06:00 +6°C° 0 mm 1 mps 759 mmHg 85%
    07:00 +8°C° 0 mm 1 mps 759 mmHg 77%
    08:00 +10°C° 0 mm 1 mps 758 mmHg 68%
    09:00 +12°C° 0 mm 2 mps 758 mmHg 60%
    10:00 +14°C° 0 mm 2 mps 757 mmHg 55%
    11:00 +15°C° 0 mm 1 mps 756 mmHg 51%
    12:00 +16°C° 0 mm 1 mps 755 mmHg 47%
    13:00 +18°C° 0 mm 1 mps 755 mmHg 46%
    14:00 +19°C° 0 mm 1 mps 754 mmHg 44%
    15:00 +19°C° 0 mm 1 mps 753 mmHg 42%
    16:00 +18°C° 0 mm 1 mps 753 mmHg 47%
    17:00 +15°C° 0 mm 1 mps 753 mmHg 52%
    18:00 +14°C° 0 mm 1 mps 753 mmHg 58%
    19:00 +13°C° 0 mm 1 mps 753 mmHg 59%
    20:00 +13°C° 0 mm 1 mps 753 mmHg 61%
    21:00 +12°C° 0 mm 2 mps 754 mmHg 63%
    22:00 +12°C° 0 mm 2 mps 753 mmHg 61%
    23:00 +10°C° 0 mm 2 mps 753 mmHg 59%

    Day after tomorrow, 31 March, Friday

    Time Temperature Precipitation Wind Pressure Humidity
    00:00 +10°C° 0 mm 3 mps 753 mmHg 57%
    01:00 +10°C° 0 mm 3 mps 753 mmHg 55%
    02:00 +10°C° 0 mm 3 mps 753 mmHg 53%
    03:00 +9°C° 0 mm 3 mps 753 mmHg 52%
    04:00 +9°C° 0 mm 3 mps 753 mmHg 52%
    05:00 +9°C° 0 mm 2 mps 754 mmHg 51%
    06:00 +9°C° 0 mm 2 mps 754 mmHg 51%
    07:00 +12°C° 0 mm 2 mps 754 mmHg 46%
    08:00 +15°C° 0 mm 2 mps 754 mmHg 40%
    09:00 +17°C° 0 mm 2 mps 754 mmHg 35%
    10:00 +18°C° 0 mm 2 mps 754 mmHg 33%
    11:00 +19°C° 0 mm 2 mps 754 mmHg 30%
    12:00 +20°C° 0 mm 2 mps 753 mmHg 28%
    13:00 +21°C° 0 mm 3 mps 753 mmHg 29%
    14:00 +21°C° 0 mm 3 mps 753 mmHg 30%
    15:00 +21°C° 0 mm 4 mps 753 mmHg 30%
    16:00 +19°C° 0.1 mm 4 mps 754 mmHg 39%
    17:00 +16°C° 0.1 mm 5 mps 755 mmHg 47%
    18:00 +15°C° 0.1 mm 6 mps 755 mmHg 56%
    19:00 +13°C° 0.4 mm 6 mps 756 mmHg 62%
    20:00 +11°C° 0.4 mm 7 mps 757 mmHg 68%
    21:00 +9°C° 0.4 mm 7 mps 758 mmHg 74%
    22:00 +8°C° 0.6 mm 7 mps 758 mmHg 76%
    23:00 +6°C° 0.6 mm 7 mps 758 mmHg 78%

    1 April, Saturday

    Time Temperature Precipitation Wind Pressure Humidity
    00:00 +7°C° 0.6 mm 6 mps 759 mmHg 80%
    01:00 +5°C° 0.3 mm 6 mps 758 mmHg 81%
    02:00 +5°C° 0.3 mm 6 mps 758 mmHg 82%
    03:00 +5°C° 0.3 mm 5 mps 758 mmHg 82%
    04:00 +5°C° 0.3 mm 5 mps 758 mmHg 83%
    05:00 +5°C° 0.3 mm 5 mps 759 mmHg 84%
    06:00 +5°C° 0.3 mm 5 mps 759 mmHg 84%
    07:00 +5°C° 0.2 mm 5 mps 759 mmHg 82%
    08:00 +6°C° 0.2 mm 5 mps 759 mmHg 80%
    09:00 +6°C° 0.2 mm 5 mps 759 mmHg 77%
    10:00 +7°C° 0.1 mm 5 mps 759 mmHg 74%
    11:00 +8°C° 0.1 mm 4 mps 758 mmHg 71%
    12:00 +8°C° 0.1 mm 4 mps 758 mmHg 68%
    13:00 +10°C° 0.1 mm 4 mps 757 mmHg 67%
    14:00 +10°C° 0.1 mm 3 mps 757 mmHg 67%
    15:00 +10°C° 0.1 mm 3 mps 756 mmHg 67%
    16:00 +9°C° 0.1 mm 3 mps 756 mmHg 70%
    17:00 +9°C° 0.1 mm 2 mps 756 mmHg 74%
    18:00 +8°C° 0.1 mm 2 mps 756 mmHg 78%
    19:00 +7°C° 0 mm 2 mps 757 mmHg 81%
    20:00 +7°C° 0 mm 2 mps 757 mmHg 85%
    21:00 +6°C° 0 mm 2 mps 757 mmHg 88%
    22:00 +7°C° 0 mm 1 mps 757 mmHg 90%
    23:00 +6°C° 0 mm 1 mps 757 mmHg 93%

    2 April, Sunday

    Time Temperature Precipitation Wind Pressure Humidity
    00:00 +5°C° 0 mm 1 mps 756 mmHg 95%
    01:00 +6°C° 0 mm 1 mps 756 mmHg 95%
    02:00 +6°C° 0 mm 1 mps 756 mmHg 95%
    03:00 +6°C° 0 mm 1 mps 756 mmHg 95%
    04:00 +6°C° 0 mm 1 mps 756 mmHg 94%
    05:00 +6°C° 0 mm 1 mps 756 mmHg 93%
    06:00 +5°C° 0 mm 0 mps 757 mmHg 93%
    07:00 +6°C° 0 mm 0 mps 757 mmHg 86%
    08:00 +9°C° 0 mm 1 mps 757 mmHg 80%
    09:00 +10°C° 0 mm 1 mps 757 mmHg 73%
    10:00 +12°C° 0 mm 2 mps 757 mmHg 68%
    11:00 +13°C° 0 mm 2 mps 757 mmHg 62%
    12:00 +14°C° 0 mm 3 mps 756 mmHg 57%
    13:00 +14°C° 0 mm 3 mps 756 mmHg 55%
    14:00 +16°C° 0 mm 3 mps 756 mmHg 53%
    15:00 +15°C° 0 mm 4 mps 756 mmHg 50%
    16:00 +14°C° 0 mm 4 mps 756 mmHg 55%
    17:00 +13°C° 0 mm 4 mps 756 mmHg 60%
    18:00 +12°C° 0 mm 4 mps 757 mmHg 65%
    19:00 +11°C° 0 mm 4 mps 757 mmHg 69%
    20:00 +10°C° 0 mm 4 mps 758 mmHg 74%
    21:00 +8°C° 0 mm 4 mps 759 mmHg 78%
    22:00 +7°C° 0 mm 4 mps 759 mmHg 79%
    23:00 +6°C° 0 mm 4 mps 759 mmHg 80%

    3 April, Monday

    Time Temperature Precipitation Wind Pressure Humidity
    00:00 +7°C° 0 mm 3 mps 760 mmHg 82%
    01:00 +7°C° 0 mm 3 mps 760 mmHg 81%
    02:00 +5°C° 0 mm 3 mps 760 mmHg 80%
    03:00 +6°C° 0 mm 2 mps 760 mmHg 79%
    04:00 +6°C° 0 mm 2 mps 760 mmHg 77%
    05:00 +6°C° 0 mm 2 mps 761 mmHg 75%
    06:00 +6°C° 0 mm 2 mps 761 mmHg 74%
    07:00 +7°C° 0 mm 3 mps 761 mmHg 67%
    08:00 +9°C° 0 mm 3 mps 761 mmHg 61%
    09:00 +10°C° 0 mm 4 mps 761 mmHg 55%
    10:00 +11°C° 0 mm 4 mps 761 mmHg 51%
    11:00 +13°C° 0 mm 4 mps 760 mmHg 48%
    12:00 +14°C° 0 mm 3 mps 760 mmHg 45%
    13:00 +14°C° 0 mm 3 mps 759 mmHg 44%
    14:00 +16°C° 0 mm 3 mps 759 mmHg 44%
    15:00 +16°C° 0 mm 3 mps 758 mmHg 43%
    16:00 +14°C° 0 mm 3 mps 758 mmHg 48%
    17:00 +14°C° 0 mm 2 mps 758 mmHg 53%
    18:00 +13°C° 0 mm 2 mps 758 mmHg 58%
    19:00 +12°C° 0 mm 2 mps 759 mmHg 62%
    20:00 +9°C° 0 mm 2 mps 759 mmHg 66%
    21:00 +8°C° 0 mm 2 mps 759 mmHg 70%
    22:00 +8°C° 0 mm 2 mps 759 mmHg 72%
    23:00 +8°C° 0 mm 1 mps 759 mmHg 75%
    Show more